Home > Weather > Coffs Harbour > Past weeks

Flag for Australia Past Weather in Coffs Harbour, New South Wales, Australia — Yesterday and Last 2 Weeks

Now
55 °F

Refreshingly cool.


Feels Like: 55 °F
Forecast: 51 / 67 °F
Wind: 2 mph from Northwest

Location: Tamworth Airport AWS

Current Time: May 30, 2016 at 1:02:07 PM

Latest Report: May 30, 2016 at 12:00 PM


Visibility: N/A

Pressure: 30.23 "Hg

Humidity: 48%

Dew Point: 36 °F

Location of Coffs HarbourLocation

Past Weather in Coffs Harbour — Graph

°F

Coffs Harbour Temperature Yesterday

Maximum temperature yesterday: 58 °F (at 3:00 PM)
Minimum temperature yesterday: 37 °F (at 11:00 PM)
Average temperature yesterday: 49 °F

High & Low Weather Summary for the Past Weeks

 TemperatureHumidityPressure
High78 °F (May 23, 1:00 PM)93% (May 30, 6:00 AM)30.32 "Hg (May 30, 6:00 AM)
Low32 °F (May 30, 4:00 AM)13% (May 25, 3:00 PM)29.72 "Hg (May 27, 4:00 AM)
Average54 °F62%30.07 "Hg
* Reported May 15 11:00 AM — May 30 11:00 AM, Coffs Harbour, Weather by CustomWeather, © 2016

Note: Actual official high and low records may vary slightly from our data, if they occured in-between our weather recording intervals... More about our weather records

Advertising

Coffs Harbour Weather History for the Previous 24 Hours

Scroll right to see more
 ConditionsComfort  
Time TempWeatherWind HumidityBarometerVisibility
11:00 AM
Mon, May 30
53 °FCool.6 mph55%30.26 "HgN/A
10:00 AM48 °FCool.8 mph69%30.28 "HgN/A
9:00 AM43 °FQuite cool.7 mph81%30.28 "HgN/A
8:00 AM38 °FChilly.7 mph90%30.27 "HgN/A
7:00 AM32 °FChilly.No wind92%30.25 "HgN/A
6:00 AM33 °FChilly.2 mph93%30.23 "HgN/A
5:00 AM32 °FChilly.No wind91%30.20 "HgN/A
4:00 AM32 °FChilly.2 mph89%30.19 "HgN/A
3:00 AM35 °FChilly.6 mph90%30.19 "HgN/A
2:00 AM34 °FChilly.3 mph89%30.19 "HgN/A
1:00 AM35 °FChilly.5 mph88%30.18 "HgN/A
12:00 AM33 °FChilly.3 mph87%30.19 "HgN/A
11:00 PM
Sun, May 29
37 °FChilly.5 mph85%30.19 "HgN/A
10:00 PM39 °FChilly.6 mph80%30.19 "HgN/A
9:00 PM38 °FChilly.5 mph71%30.19 "HgN/A
8:00 PM45 °FCool.No wind71%30.17 "HgN/A
7:00 PM47 °FCool.No wind66%30.16 "HgN/A
6:00 PM50 °FCool.3 mph59%30.14 "HgN/A
5:00 PM53 °FCool.5 mph53%30.12 "HgN/A
4:00 PM57 °FRefreshingly cool.9 mph45%30.11 "HgN/A
3:00 PM58 °FRefreshingly cool.9 mph43%30.10 "HgN/A
2:00 PM57 °FRefreshingly cool.8 mph45%30.09 "HgN/A
1:00 PM56 °FRefreshingly cool.12 mph48%30.10 "HgN/A
Weather by CustomWeather, © 2016

See weather overviewHow to use our weather pages